• In Belarus
  • List of Countries
  • For 7 days
  • Water Temperature
  • Satellite Maps
  • Weather Map
  • Weather Widgets
  • user-avatar
    Login

    Hourly Weather Juzhno-Kuril'sk

    Today, 17 December, Sunday

    Time Temperature Precipitation Wind Pressure Humidity
    00:00 -7°C° 0 mm 4 mps 750 mmHg 80%
    01:00 -7°C° 0 mm 4 mps 750 mmHg 83%
    02:00 -7°C° 0 mm 4 mps 750 mmHg 80%
    03:00 -7°C° 0 mm 4 mps 750 mmHg 78%
    04:00 -7°C° 0 mm 5 mps 749 mmHg 75%
    05:00 -7°C° 0 mm 5 mps 749 mmHg 74%
    06:00 -7°C° 0 mm 5 mps 749 mmHg 74%
    07:00 -8°C° 0 mm 5 mps 749 mmHg 73%
    08:00 -7°C° 0 mm 5 mps 749 mmHg 72%
    09:00 -8°C° 0 mm 6 mps 749 mmHg 72%
    10:00 -7°C° 0 mm 5 mps 749 mmHg 70%
    11:00 -6°C° 0.1 mm 6 mps 749 mmHg 74%
    12:00 -7°C° 0.1 mm 7 mps 749 mmHg 78%
    13:00 -7°C° 0.1 mm 7 mps 749 mmHg 82%
    14:00 -7°C° 0.2 mm 8 mps 750 mmHg 83%
    15:00 -7°C° 0.2 mm 8 mps 750 mmHg 83%
    16:00 -8°C° 0 mm 10 mps 750 mmHg 80%
    17:00 -9°C° 0.1 mm 10 mps 751 mmHg 79%
    18:00 -9°C° 0.1 mm 9 mps 752 mmHg 78%
    19:00 -10°C° 0.1 mm 8 mps 753 mmHg 77%
    20:00 -9°C° 0 mm 7 mps 754 mmHg 78%
    21:00 -9°C° 0 mm 7 mps 754 mmHg 79%
    22:00 -9°C° 0 mm 6 mps 755 mmHg 80%
    23:00 -9°C° 0 mm 6 mps 755 mmHg 82%

    Tomorrow, 18 December, Monday

    Time Temperature Precipitation Wind Pressure Humidity
    00:00 -8°C° 0 mm 5 mps 755 mmHg 84%
    01:00 -10°C° 0 mm 5 mps 756 mmHg 86%
    02:00 -9°C° 0.1 mm 4 mps 756 mmHg 86%
    03:00 -9°C° 0.1 mm 4 mps 756 mmHg 86%
    04:00 -9°C° 0.1 mm 4 mps 756 mmHg 86%
    05:00 -9°C° 0.1 mm 4 mps 757 mmHg 83%
    06:00 -9°C° 0.1 mm 4 mps 757 mmHg 81%
    07:00 -10°C° 0.1 mm 5 mps 757 mmHg 78%
    08:00 -8°C° 0.1 mm 5 mps 757 mmHg 75%
    09:00 -9°C° 0.1 mm 6 mps 758 mmHg 72%
    10:00 -8°C° 0.1 mm 7 mps 758 mmHg 68%
    11:00 -8°C° 0 mm 7 mps 758 mmHg 66%
    12:00 -6°C° 0 mm 6 mps 758 mmHg 63%
    13:00 -6°C° 0 mm 6 mps 757 mmHg 60%
    14:00 -6°C° 0 mm 6 mps 757 mmHg 63%
    15:00 -6°C° 0 mm 6 mps 757 mmHg 66%
    16:00 -6°C° 0 mm 6 mps 757 mmHg 69%
    17:00 -8°C° 0 mm 6 mps 758 mmHg 69%
    18:00 -8°C° 0 mm 7 mps 758 mmHg 70%
    19:00 -8°C° 0 mm 7 mps 758 mmHg 70%
    20:00 -8°C° 0 mm 7 mps 757 mmHg 71%
    21:00 -8°C° 0 mm 7 mps 757 mmHg 71%
    22:00 -9°C° 0 mm 7 mps 757 mmHg 72%
    23:00 -9°C° 0 mm 7 mps 757 mmHg 73%

    Day after tomorrow, 19 December, Tuesday

    Time Temperature Precipitation Wind Pressure Humidity
    00:00 -8°C° 0 mm 7 mps 757 mmHg 74%
    01:00 -8°C° 0 mm 7 mps 757 mmHg 76%
    02:00 -8°C° 0 mm 6 mps 757 mmHg 76%
    03:00 -7°C° 0 mm 5 mps 756 mmHg 77%
    04:00 -6°C° 0 mm 3 mps 756 mmHg 78%
    05:00 -6°C° 0.1 mm 3 mps 756 mmHg 79%
    06:00 -7°C° 0.1 mm 3 mps 756 mmHg 81%
    07:00 -6°C° 0.1 mm 2 mps 756 mmHg 82%
    08:00 -6°C° 0 mm 3 mps 755 mmHg 83%
    09:00 -5°C° 0 mm 3 mps 755 mmHg 83%
    10:00 -4°C° 0 mm 4 mps 755 mmHg 84%
    11:00 -4°C° 0 mm 4 mps 754 mmHg 85%
    12:00 -3°C° 0 mm 4 mps 753 mmHg 86%
    13:00 -2°C° 0 mm 4 mps 752 mmHg 87%
    14:00 -3°C° 0.4 mm 4 mps 752 mmHg 87%
    15:00 -3°C° 0.4 mm 4 mps 751 mmHg 87%
    16:00 -4°C° 0.4 mm 4 mps 751 mmHg 87%
    17:00 -5°C° 0.3 mm 5 mps 751 mmHg 84%
    18:00 -7°C° 0.3 mm 7 mps 751 mmHg 82%
    19:00 -7°C° 0.3 mm 8 mps 752 mmHg 79%
    20:00 -9°C° 0.1 mm 9 mps 753 mmHg 76%
    21:00 -11°C° 0.1 mm 11 mps 753 mmHg 72%
    22:00 -12°C° 0.1 mm 12 mps 754 mmHg 68%
    23:00 -12°C° 0 mm 12 mps 754 mmHg 70%

    20 December, Wednesday

    Time Temperature Precipitation Wind Pressure Humidity
    00:00 -13°C° 0 mm 11 mps 755 mmHg 73%
    01:00 -13°C° 0 mm 11 mps 755 mmHg 75%
    02:00 -13°C° 0.1 mm 11 mps 756 mmHg 75%
    03:00 -13°C° 0.1 mm 11 mps 756 mmHg 75%
    04:00 -13°C° 0.1 mm 11 mps 757 mmHg 75%
    05:00 -13°C° 0.1 mm 11 mps 757 mmHg 75%
    06:00 -14°C° 0.1 mm 10 mps 758 mmHg 75%
    07:00 -14°C° 0.1 mm 10 mps 759 mmHg 76%
    08:00 -13°C° 0.1 mm 10 mps 759 mmHg 75%
    09:00 -13°C° 0.1 mm 10 mps 760 mmHg 75%
    10:00 -11°C° 0.1 mm 9 mps 761 mmHg 74%
    11:00 -11°C° 0.1 mm 9 mps 761 mmHg 71%
    12:00 -10°C° 0.1 mm 9 mps 761 mmHg 69%
    13:00 -10°C° 0.1 mm 8 mps 761 mmHg 66%
    14:00 -10°C° 0 mm 8 mps 761 mmHg 67%
    15:00 -9°C° 0 mm 7 mps 761 mmHg 68%
    16:00 -9°C° 0 mm 7 mps 761 mmHg 69%
    17:00 -11°C° 0 mm 7 mps 761 mmHg 71%
    18:00 -11°C° 0 mm 7 mps 761 mmHg 73%
    19:00 -11°C° 0 mm 7 mps 762 mmHg 75%
    20:00 -11°C° 0 mm 7 mps 762 mmHg 75%
    21:00 -11°C° 0 mm 7 mps 762 mmHg 74%
    22:00 -11°C° 0 mm 7 mps 762 mmHg 74%
    23:00 -11°C° 0 mm 7 mps 762 mmHg 74%

    21 December, Thursday

    Time Temperature Precipitation Wind Pressure Humidity
    00:00 -11°C° 0 mm 7 mps 762 mmHg 74%
    01:00 -11°C° 0 mm 7 mps 762 mmHg 73%
    02:00 -11°C° 0 mm 7 mps 762 mmHg 74%
    03:00 -11°C° 0 mm 7 mps 762 mmHg 74%
    04:00 -11°C° 0 mm 7 mps 762 mmHg 74%
    05:00 -11°C° 0 mm 7 mps 762 mmHg 74%
    06:00 -11°C° 0 mm 7 mps 762 mmHg 74%
    07:00 -11°C° 0 mm 7 mps 762 mmHg 74%
    08:00 -9°C° 0 mm 7 mps 763 mmHg 72%
    09:00 -9°C° 0 mm 6 mps 763 mmHg 71%
    10:00 -8°C° 0 mm 6 mps 763 mmHg 69%
    11:00 -6°C° 0 mm 6 mps 762 mmHg 67%
    12:00 -5°C° 0 mm 6 mps 762 mmHg 65%
    13:00 -4°C° 0 mm 6 mps 762 mmHg 63%
    14:00 -4°C° 0 mm 6 mps 761 mmHg 65%
    15:00 -5°C° 0 mm 6 mps 761 mmHg 67%
    16:00 -5°C° 0 mm 6 mps 761 mmHg 70%
    17:00 -5°C° 0 mm 6 mps 761 mmHg 71%
    18:00 -5°C° 0 mm 6 mps 760 mmHg 72%
    19:00 -6°C° 0 mm 7 mps 760 mmHg 73%
    20:00 -5°C° 0 mm 8 mps 759 mmHg 75%
    21:00 -4°C° 0 mm 9 mps 759 mmHg 77%
    22:00 -3°C° 0 mm 9 mps 758 mmHg 78%
    23:00 -3°C° 0 mm 9 mps 758 mmHg 77%

    22 December, Friday

    Time Temperature Precipitation Wind Pressure Humidity
    00:00 -3°C° 0 mm 9 mps 757 mmHg 76%
    01:00 -4°C° 0 mm 9 mps 757 mmHg 75%
    02:00 -4°C° 0 mm 9 mps 757 mmHg 75%
    03:00 -5°C° 0 mm 9 mps 757 mmHg 75%
    04:00 -5°C° 0 mm 9 mps 757 mmHg 75%
    05:00 -5°C° 0.1 mm 9 mps 757 mmHg 76%
    06:00 -5°C° 0.1 mm 9 mps 758 mmHg 78%
    07:00 -6°C° 0.1 mm 9 mps 758 mmHg 79%
    08:00 -5°C° 0.1 mm 9 mps 759 mmHg 78%
    09:00 -5°C° 0.1 mm 8 mps 759 mmHg 77%
    10:00 -5°C° 0.1 mm 8 mps 760 mmHg 75%
    11:00 -5°C° 0 mm 8 mps 760 mmHg 74%
    12:00 -4°C° 0 mm 7 mps 760 mmHg 73%
    13:00 -3°C° 0 mm 7 mps 759 mmHg 71%
    14:00 -3°C° 0 mm 7 mps 760 mmHg 72%
    15:00 -4°C° 0 mm 6 mps 760 mmHg 73%
    16:00 -4°C° 0 mm 5 mps 760 mmHg 73%
    17:00 -4°C° 0 mm 5 mps 760 mmHg 74%
    18:00 -5°C° 0 mm 5 mps 761 mmHg 75%
    19:00 -4°C° 0 mm 4 mps 761 mmHg 75%
    20:00 -4°C° 0 mm 4 mps 761 mmHg 75%
    21:00 -5°C° 0 mm 4 mps 761 mmHg 75%
    22:00 -5°C° 0 mm 4 mps 761 mmHg 75%
    23:00 -5°C° 0 mm 4 mps 761 mmHg 76%
    Show more

    XHprof extension not loaded